Location: Unspecified
(47.9110°N, 14.3980°E)
Time: 15:13:45
(UTC+00:00)

SL-4 R/B - Pass Details

Date: 06 August 2020
Orbit: 428 x 665 km, 51.6° (Epoch: 18 September)

Event Time Altitude Azimuth Distance (km) Brightness Sun altitude
Rises 19:17:57 0° 189° (S) 2,679 5.3 -7.8°
Reaches altitude 10° 19:21:19 10° 161° (SSE) 1,731 4.1 -8.2°
Maximum altitude 19:23:03 13° 134° (SE) 1,543 3.6 -8.5°
Enters shadow 19:24:15 11° 115° (ESE) 1,607 3.8 -8.6°
